Flag for USA Past Weather in Warminster Township, Pennsylvania, USA — Yesterday and Last 2 Weeks

Now
61 °F

Clear.


Feels Like: 61 °F
Forecast: 62 / 83 °F
Wind: No wind

Location: Doylestown Airport

Current Time: Jun 30, 2016 at 3:03:15 AM

Latest Report: Jun 30, 2016 at 1:54 AM


Visibility: 10 mi

Pressure: 29.97 "Hg

Humidity: 83%

Dew Point: 56 °F

Location of Warminster TownshipLocation

Past Weather in Warminster Township — Graph

°F

Warminster Township Temperature Yesterday

Maximum temperature yesterday: 82 °F (at 2:54 PM)
Minimum temperature yesterday: 62 °F (at 4:54 AM)
Average temperature yesterday: 72 °F

High & Low Weather Summary for the Past Weeks

 TemperatureHumidityPressure
High89 °F (Jun 19, 2:54 PM)100% (Jun 22, 6:54 AM)30.30 "Hg (Jun 22, 6:54 AM)
Low50 °F (Jun 18, 5:54 AM)24% (Jun 19, 1:54 PM)29.73 "Hg (Jun 16, 5:54 PM)
Average72 °F64%29.98 "Hg
* Reported Jun 15 12:54 AM — Jun 30 12:54 AM, Warminster Township, Weather by CustomWeather, © 2016

Note: Actual official high and low records may vary slightly from our data, if they occured in-between our weather recording intervals... More about our weather records

Advertising

Warminster Township Weather History for the Previous 24 Hours

Scroll right to see more
 ConditionsComfort  
Time TempWeatherWind HumidityBarometerVisibility
12:54 AM
Thu, Jun 30
64 °FClear.No wind75%29.96 "Hg10 mi
11:54 PM
Wed, Jun 29
66 °FClear.No wind68%29.96 "Hg10 mi
10:54 PM68 °FClear.3 mph63%29.95 "Hg10 mi
9:54 PM70 °FClear.3 mph59%29.94 "Hg10 mi
8:54 PM73 °FSunny.5 mph51%29.92 "Hg10 mi
7:54 PM77 °FSunny.6 mph42%29.90 "Hg10 mi
6:54 PM79 °FSunny.9 mph36%29.89 "Hg10 mi
5:54 PM81 °FSunny.7 mph37%29.88 "Hg10 mi
4:54 PM82 °FPassing clouds.10 mph38%29.88 "Hg10 mi
3:54 PM82 °FScattered clouds.9 mph38%29.88 "Hg10 mi
2:54 PM82 °FScattered clouds.9 mph40%29.88 "Hg10 mi
1:54 PM81 °FSunny.9 mph44%29.88 "Hg10 mi
12:54 PM81 °FSunny.8 mph44%29.88 "Hg10 mi
11:54 AM78 °FSunny.5 mph50%29.89 "Hg10 mi
10:54 AM76 °FSunny.6 mph54%29.90 "Hg10 mi
9:54 AM75 °FPassing clouds.7 mph58%29.90 "Hg10 mi
8:54 AM73 °FSunny.9 mph69%29.90 "Hg10 mi
7:54 AM69 °FSunny.6 mph84%29.89 "Hg10 mi
6:54 AM64 °FSunny.No wind100%29.88 "Hg10 mi
5:54 AM62 °FClear.No wind100%29.86 "Hg7 mi
4:54 AM62 °FFog.No wind100%29.86 "Hg4 mi
3:54 AM63 °FFog.No wind100%29.86 "Hg6 mi
Weather by CustomWeather, © 2016

See weather overviewHow to use our weather pages